Simultaneous Nadir Overpasses (SNOs) Predictions

Prediction of SNOs between GOES-15 and LANDSAT-8 Satellite Orbit:

Table of predicted SNOs for the next 14.0 days since TLE Epoch: 2/27/2021
Index Date Time (GOES-15) GOES-15 Lat,Lon LANDSAT-8 Lat,Lon Distance(km) Time Diff (sec)
1 02/28/2021 18:36:36 0.16,-128.27 -0.23,-126.42 209.59 80
2 03/01/2021 07:00:40 -0.16,-128.20 -0.87,-131.62 388.15 80
3 03/03/2021 06:48:28 -0.16,-128.24 -0.23,-128.66 48.03 80
4 03/05/2021 06:33:35 -0.16,-128.27 0.36,-125.70 291.45 80
5 03/05/2021 18:54:51 0.16,-128.35 0.69,-130.86 285.52 80
6 03/07/2021 18:45:19 0.15,-128.37 0.04,-127.91 53.16 80
7 03/09/2021 18:33:06 0.15,-128.39 -0.56,-124.94 391.57 80
8 03/10/2021 06:54:30 -0.15,-128.32 -0.54,-130.14 206.37 80
9 03/12/2021 06:39:38 -0.15,-128.34 0.12,-127.19 132.09 80
10 03/12/2021 19:00:52 0.15,-128.42 0.99,-132.34 445.69 80
